Location: Bruderhein
(53.8035°N, 112.9265°W)
Time: 11:58:15
(UTC+00:00)

KKS-1 - Pass Details

Date: 06 April 2023
Orbit: 633 x 644 km, 98.2° (Epoch: 30 May)

Event Time Altitude Azimuth Distance (km) Brightness Sun altitude
Rises 07:58:36 0° 5° (N) 2,946 ? -29.6°
Reaches altitude 10° 08:01:27 10° 346° (NNW) 2,032 ? -29.5°
Maximum altitude 08:04:17 17° 306° (NW) 1,614 ? -29.5°
Enters shadow 08:04:38 17° 299° (WNW) 1,621 ? -29.5°
